This is the latest recevied weather packets stored in our database for station/object KD2RHT-13. If no packets are shown the sender has not sent any weather packets the latest 10 day(s).
| Time | Temp. | Humidity | Pressure | Rain* | Wind** | Luminosity | Snow |
|---|---|---|---|---|---|---|---|
| 1777985046 | 21.11° C | 64% | 1005.3 hPa | 0 mm | - | 189 W/m² | - |
| 1777984742 | 21.11° C | 64% | 1005.6 hPa | 0 mm | - | 277 W/m² | - |
| 1777984439 | 21.11° C | 64% | 1005.6 hPa | 0 mm | - | 282 W/m² | - |
| 1777984134 | 21.11° C | 65% | 1005.3 hPa | 0 mm | - | 339 W/m² | - |
| 1777983832 | 20.56° C | 65% | 1005 hPa | 0 mm | - | 313 W/m² | - |
| 1777983529 | 20.56° C | 66% | 1005.3 hPa | 0 mm | - | 274 W/m² | - |
| 1777983226 | 20.56° C | 66% | 1005.6 hPa | 0 mm | - | 251 W/m² | - |
| 1777982922 | 20.56° C | 66% | 1005.3 hPa | 0 mm | - | 232 W/m² | - |
| 1777982618 | 20° C | 66% | 1005.3 hPa | 0 mm | - | 220 W/m² | - |
| 1777982317 | 20° C | 67% | 1005.3 hPa | 0 mm | - | 212 W/m² | - |
| 1777982014 | 19.44° C | 67% | 1005.3 hPa | 0 mm | - | 198 W/m² | - |
| 1777981712 | 19.44° C | 68% | 1005.3 hPa | 0 mm | - | 88 W/m² | - |
| 1777981408 | 19.44° C | 68% | 1005.3 hPa | 0 mm | - | 79 W/m² | - |
| 1777981105 | 18.89° C | 69% | 1005.3 hPa | 0 mm | - | 74 W/m² | - |
| 1777980801 | 18.89° C | 69% | 1005.3 hPa | 0 mm | - | 76 W/m² | - |
| 1777980497 | 18.89° C | 69% | 1005 hPa | 0 mm | - | 82 W/m² | - |
| 1777980195 | 18.89° C | 70% | 1005.3 hPa | 0 mm | - | 80 W/m² | - |
| 1777979890 | 18.33° C | 71% | 1005 hPa | 0 mm | - | 72 W/m² | - |
| 1777979586 | 18.33° C | 71% | 1005.3 hPa | 0 mm | - | 40 W/m² | - |
| 1777979282 | 18.33° C | 70% | 1005 hPa | 0 mm | - | 36 W/m² | - |
| 1777978980 | 18.33° C | 71% | 1005 hPa | 0 mm | - | 35 W/m² | - |
| 1777978677 | 18.33° C | 70% | 1005 hPa | 0 mm | - | 44 W/m² | - |
| 1777978372 | 18.33° C | 71% | 1005 hPa | 0 mm | - | 40 W/m² | - |
| 1777978069 | 17.78° C | 72% | 1004.5 hPa | 0 mm | - | 34 W/m² | - |
| 1777977767 | 17.78° C | 73% | 1005 hPa | 0 mm | - | 25 W/m² | - |
* Rain latest hour (hover to see other rain measurements)
** Current wind speed in m/s (hover to see current wind gust speed)